Regional Weather Roundup
Issued by NWS

Home | Current Version | Previous Version | Graphics & Text | Print | Product List | Glossary On
Versions: 1 2 3 4 5 6 7 8 9 10 11 12 13 14 15 16 17 18 19 20 21 22 23 24 25 26 27 28 29 30 31 32 33 34 35 36 37 38 39 40 41 42 43 44 45 46 47 48 49 50
000
ASUS43 KLMK 251910
RWRKY
KENTUCKY REGIONAL WEATHER ROUNDUP
NATIONAL WEATHER SERVICE LOUISVILLE KY
300 PM EDT SUN SEP 25 2016

NOTE "FAIR" INDICATES FEW OR NO CLOUDS BELOW 12,000 FEET
WITH NO SIGNIFICANT WEATHER AND/OR OBSTRUCTIONS TO VISIBILITY.

KYZ001>023-026-027-061>063-070>075-252000-
WESTERN AND SOUTH CENTRAL KENTUCKY

CITY           SKY/WX    TMP DP  RH WIND       PRES   REMARKS
PADUCAH        MOSUNNY   91  64  40 CALM      30.03F HX  92
HENDERSON      MOSUNNY   91  63  38 CALM      30.03F HX  92
OWENSBORO      SUNNY    N/A N/A N/A N8        30.04F
HOPKINSVILLE   SUNNY     89  64  43 CALM      30.04F HX  90
BOWLING GREEN  SUNNY     91  61  36 NE7       30.05F HX  91
GLASGOW        SUNNY     90  63  39 SE3       30.05F HX  91
$$

KYZ024-025-028>034-038-045-046-053-252000-
NORTH CENTRAL KENTUCKY

CITY           SKY/WX    TMP DP  RH WIND       PRES   REMARKS
LOUISVILLE/SDF MOSUNNY   91  63  39 NW5       30.04F HX  92
LOUISVILLE/LOU SUNNY     89  60  37 CALM      30.06F
FORT KNOX      MOSUNNY   87  64  46 W3        30.05F
$$

KYZ035>037-039>044-047>052-055>060-089>105-252000-
NORTHEAST KENTUCKY

CITY           SKY/WX    TMP DP  RH WIND       PRES   REMARKS
LEXINGTON      CLOUDY    85  63  47 N6        30.08F
COVINGTON      MOSUNNY   85  65  51 CALM      30.09F
FRANKFORT      MOSUNNY   86  64  47 CALM      30.06F
$$

KYZ054-064>069-076>088-106>120-252000-
SOUTHEAST KENTUCKY

CITY           SKY/WX    TMP DP  RH WIND       PRES   REMARKS
JACKSON        MOSUNNY   84  64  50 CALM      30.10F
LONDON         MOSUNNY   86  60  41 NW8       30.09F
SOMERSET       MOSUNNY   88  61  40 NW6       30.08F
MIDDLESBORO    MOSUNNY   86  64  48 CALM      30.08F
MONTICELLO     MOCLDY    88  65  46 N13G21    30.09F HX  90
$$




USA.gov is the U.S. government's official web portal to all federal, state and local government web resources and services.